EZY52RV LMML-EGCC

Flight info

Callsign EZY52RV
Flight time N/A
Altitude 38000
Route GZO M622 SOPIR DCT MABOX DCT ADEXI DCT ABESI DCT UTAVO DCT HOC DCT LUL DCT RLP DCT ROTSI DCT KOTUN DCT AMAXA DCT VESAN DCT RATUK DCT SOVAT L613 SANDY UN57 WELIN T420 ELVOS
Aircraft A20N/M-SDE2E3FGHIJ1RWXYZ/LB1G1

Departure

Time N/A
Airport Malta International Airport (LMML)

Arrival

Time 2026-05-06 08:51
Airport Manchester Airport (EGCC)
Time Latitude Longitude Altitude Speed Heading
2026-05-06 07:55 49.29191 3.24481 37826 ft 442 kts 322°
2026-05-06 07:55 49.31701 3.21668 37830 ft 442 kts 322°
2026-05-06 07:56 49.36638 3.16125 37836 ft 442 kts 322°
2026-05-06 07:56 49.41606 3.10533 37839 ft 441 kts 322°
2026-05-06 07:57 49.46538 3.04967 37851 ft 441 kts 322°
2026-05-06 07:57 49.51460 2.99400 37852 ft 441 kts 322°
2026-05-06 07:58 49.56422 2.93773 37853 ft 441 kts 322°
2026-05-06 07:58 49.61351 2.88167 37851 ft 441 kts 322°
2026-05-06 07:59 49.66271 2.82557 37858 ft 441 kts 322°
2026-05-06 07:59 49.71171 2.76955 37861 ft 441 kts 322°
2026-05-06 08:00 49.76092 2.71313 37862 ft 441 kts 322°
2026-05-06 08:00 49.81049 2.65732 37869 ft 440 kts 324°
2026-05-06 08:01 49.86024 2.60238 37861 ft 440 kts 324°
2026-05-06 08:01 49.91011 2.54706 37875 ft 440 kts 323°
2026-05-06 08:02 49.95970 2.49180 37871 ft 440 kts 323°
2026-05-06 08:02 50.00933 2.43634 37875 ft 440 kts 323°
2026-05-06 08:03 50.05895 2.38073 37868 ft 439 kts 323°
2026-05-06 08:03 50.10826 2.32531 37859 ft 439 kts 323°
2026-05-06 08:04 50.15832 2.26888 37860 ft 439 kts 323°
2026-05-06 08:04 50.20790 2.21289 37870 ft 439 kts 323°
2026-05-06 08:05 50.25759 2.15660 37868 ft 439 kts 323°
2026-05-06 08:05 50.30663 2.10091 37874 ft 439 kts 323°
2026-05-06 08:06 50.35622 2.04440 37878 ft 439 kts 322°
2026-05-06 08:06 50.40358 1.98392 37877 ft 438 kts 318°
2026-05-06 08:07 50.44940 1.92141 37882 ft 438 kts 318°
2026-05-06 08:07 50.49545 1.85837 37885 ft 438 kts 318°
2026-05-06 08:08 50.54137 1.79546 37883 ft 438 kts 318°
2026-05-06 08:08 50.58767 1.73191 37897 ft 438 kts 318°
2026-05-06 08:09 50.63352 1.66880 37893 ft 437 kts 318°
2026-05-06 08:09 50.67913 1.60585 37899 ft 437 kts 318°
2026-05-06 08:10 50.72480 1.54261 37899 ft 437 kts 318°
2026-05-06 08:10 50.77012 1.47964 37907 ft 437 kts 318°
2026-05-06 08:11 50.81623 1.41551 37911 ft 437 kts 318°
2026-05-06 08:11 50.86172 1.35211 37911 ft 437 kts 318°
2026-05-06 08:12 50.90764 1.28790 37919 ft 437 kts 317°
2026-05-06 08:12 50.95294 1.22436 37923 ft 437 kts 317°
2026-05-06 08:13 50.99835 1.16042 37916 ft 437 kts 317°
2026-05-06 08:13 51.04401 1.09592 37929 ft 436 kts 317°
2026-05-06 08:14 51.08828 1.03049 37924 ft 436 kts 315°
2026-05-06 08:14 51.13261 0.96434 37922 ft 436 kts 318°
2026-05-06 08:15 51.17897 0.90080 37917 ft 436 kts 318°
2026-05-06 08:15 51.22485 0.83774 37913 ft 436 kts 318°
2026-05-06 08:16 51.27068 0.77423 37917 ft 436 kts 318°
2026-05-06 08:16 51.31645 0.71047 37915 ft 435 kts 318°
2026-05-06 08:17 51.36212 0.64663 37922 ft 435 kts 318°
2026-05-06 08:17 51.40769 0.58275 37924 ft 435 kts 318°
2026-05-06 08:18 51.45319 0.51877 37932 ft 435 kts 318°
2026-05-06 08:18 51.49861 0.45472 37931 ft 435 kts 318°
2026-05-06 08:19 51.54409 0.39042 37939 ft 435 kts 318°
2026-05-06 08:19 51.58963 0.32586 37945 ft 435 kts 317°
2026-05-06 08:20 51.63517 0.26112 37951 ft 434 kts 317°
2026-05-06 08:20 51.68039 0.19667 37950 ft 435 kts 317°
2026-05-06 08:21 51.72594 0.13156 37949 ft 435 kts 317°
2026-05-06 08:21 51.74849 0.09925 37847 ft 435 kts 317°
2026-05-06 08:21 51.77112 0.06679 37901 ft 435 kts 317°
2026-05-06 08:22 51.81639 0.00168 37943 ft 435 kts 317°
2026-05-06 08:22 51.86183 -0.06383 37896 ft 436 kts 317°
2026-05-06 08:23 51.88436 -0.09638 37665 ft 434 kts 317°
2026-05-06 08:23 51.90668 -0.12868 37441 ft 431 kts 317°
2026-05-06 08:23 51.92880 -0.16071 37221 ft 428 kts 317°
2026-05-06 08:23 51.95111 -0.19309 36993 ft 425 kts 317°
2026-05-06 08:24 51.97288 -0.22472 36760 ft 423 kts 317°
2026-05-06 08:24 51.99508 -0.25701 36534 ft 422 kts 317°
2026-05-06 08:24 52.01698 -0.28892 36308 ft 422 kts 317°
2026-05-06 08:24 52.03864 -0.32055 36085 ft 422 kts 317°
2026-05-06 08:25 52.06060 -0.35264 35723 ft 423 kts 317°
2026-05-06 08:25 52.08256 -0.38476 35252 ft 428 kts 317°
2026-05-06 08:25 52.10464 -0.41711 34534 ft 434 kts 317°
2026-05-06 08:25 52.12730 -0.45031 33732 ft 437 kts 317°
2026-05-06 08:26 52.15013 -0.48382 32952 ft 439 kts 317°
2026-05-06 08:26 52.17285 -0.51723 32202 ft 440 kts 317°
2026-05-06 08:26 52.19562 -0.55078 31422 ft 441 kts 317°
2026-05-06 08:26 52.21819 -0.58409 30595 ft 443 kts 317°
2026-05-06 08:27 52.24103 -0.61784 29778 ft 444 kts 317°
2026-05-06 08:27 52.26397 -0.65177 28992 ft 443 kts 316°
2026-05-06 08:27 52.28668 -0.68543 28505 ft 436 kts 316°
2026-05-06 08:27 52.30853 -0.71784 28037 ft 432 kts 316°
2026-05-06 08:28 52.33141 -0.75186 27510 ft 429 kts 316°
2026-05-06 08:28 52.35338 -0.78453 27001 ft 425 kts 316°
2026-05-06 08:28 52.37514 -0.81695 26505 ft 421 kts 316°
2026-05-06 08:28 52.39688 -0.84941 25996 ft 417 kts 316°
2026-05-06 08:29 52.41812 -0.88111 25516 ft 414 kts 316°
2026-05-06 08:29 52.43931 -0.91275 25048 ft 411 kts 316°
2026-05-06 08:29 52.46045 -0.94439 24557 ft 408 kts 316°
2026-05-06 08:29 52.48113 -0.97537 24067 ft 404 kts 316°
2026-05-06 08:30 52.50188 -1.00654 23578 ft 401 kts 316°
2026-05-06 08:30 52.52242 -1.03744 23104 ft 397 kts 316°
2026-05-06 08:30 52.54267 -1.06797 22621 ft 394 kts 316°
2026-05-06 08:30 52.56263 -1.09810 22137 ft 390 kts 316°
2026-05-06 08:31 52.58256 -1.12820 21656 ft 387 kts 316°
2026-05-06 08:31 52.60214 -1.15783 21165 ft 384 kts 316°
2026-05-06 08:31 52.62197 -1.18786 20675 ft 381 kts 316°
2026-05-06 08:31 52.64115 -1.21695 20263 ft 376 kts 316°
2026-05-06 08:32 52.66018 -1.24584 20170 ft 361 kts 316°
2026-05-06 08:32 52.67825 -1.27327 20091 ft 347 kts 316°
2026-05-06 08:32 52.69614 -1.29880 20002 ft 334 kts 320°
2026-05-06 08:32 52.71462 -1.32104 19978 ft 319 kts 325°
2026-05-06 08:33 52.73305 -1.34034 19814 ft 310 kts 327°
2026-05-06 08:33 52.75145 -1.35910 19350 ft 311 kts 327°
2026-05-06 08:33 52.76981 -1.37777 18925 ft 310 kts 327°
2026-05-06 08:33 52.78806 -1.39636 18523 ft 308 kts 327°
2026-05-06 08:34 52.80631 -1.41499 18117 ft 307 kts 327°
2026-05-06 08:34 52.84250 -1.45199 17323 ft 303 kts 327°
2026-05-06 08:34 52.86035 -1.47028 16934 ft 302 kts 327°
2026-05-06 08:35 52.87791 -1.48831 16552 ft 300 kts 327°
2026-05-06 08:35 52.89575 -1.50662 16159 ft 298 kts 328°
2026-05-06 08:35 52.91321 -1.52457 15782 ft 296 kts 328°
2026-05-06 08:35 52.93054 -1.54241 15410 ft 293 kts 328°
2026-05-06 08:36 52.94795 -1.56035 15034 ft 291 kts 328°
2026-05-06 08:36 52.96501 -1.57793 14675 ft 288 kts 328°
2026-05-06 08:36 52.98194 -1.59540 14314 ft 286 kts 328°
2026-05-06 08:36 52.99878 -1.61280 13946 ft 284 kts 328°
2026-05-06 08:37 53.01550 -1.63009 13589 ft 281 kts 328°
2026-05-06 08:37 53.03199 -1.64715 13230 ft 279 kts 328°
2026-05-06 08:37 53.04732 -1.66436 12848 ft 279 kts 320°
2026-05-06 08:37 53.06116 -1.68739 12341 ft 283 kts 311°
2026-05-06 08:38 53.07417 -1.71217 11812 ft 287 kts 311°
2026-05-06 08:38 53.08730 -1.73730 11282 ft 290 kts 311°
2026-05-06 08:38 53.10032 -1.76235 10759 ft 293 kts 311°
2026-05-06 08:38 53.11342 -1.78769 10238 ft 296 kts 311°
2026-05-06 08:39 53.12694 -1.81395 9923 ft 290 kts 311°
2026-05-06 08:39 53.13989 -1.83918 9745 ft 281 kts 311°
2026-05-06 08:39 53.15241 -1.86370 9499 ft 275 kts 311°
2026-05-06 08:39 53.16481 -1.88817 9143 ft 273 kts 311°
2026-05-06 08:40 53.17679 -1.91204 8796 ft 271 kts 311°
2026-05-06 08:40 53.18880 -1.93619 8444 ft 269 kts 311°
2026-05-06 08:40 53.20075 -1.96043 8082 ft 267 kts 311°
2026-05-06 08:40 53.21235 -1.98417 7721 ft 265 kts 311°
2026-05-06 08:41 53.22400 -2.00817 7349 ft 264 kts 311°
2026-05-06 08:41 53.23468 -2.03332 6948 ft 266 kts 297°
2026-05-06 08:41 53.23830 -2.06335 6558 ft 272 kts 269°
2026-05-06 08:41 53.23299 -2.09348 6337 ft 270 kts 245°
2026-05-06 08:42 53.22381 -2.12059 6164 ft 263 kts 241°
2026-05-06 08:42 53.21439 -2.14606 6026 ft 253 kts 240°
2026-05-06 08:42 53.20527 -2.17020 6012 ft 239 kts 240°
2026-05-06 08:42 53.19644 -2.19350 6018 ft 236 kts 240°
2026-05-06 08:43 53.18775 -2.21640 5808 ft 237 kts 240°
2026-05-06 08:43 53.17893 -2.23969 5530 ft 235 kts 240°
2026-05-06 08:43 53.17029 -2.26258 5376 ft 227 kts 240°
2026-05-06 08:43 53.16230 -2.28442 5224 ft 220 kts 247°
2026-05-06 08:44 53.15933 -2.30827 5049 ft 206 kts 279°
2026-05-06 08:44 53.16195 -2.33113 4904 ft 196 kts 288°
2026-05-06 08:44 53.16560 -2.35280 4700 ft 193 kts 290°
2026-05-06 08:44 53.16952 -2.37450 4271 ft 202 kts 290°
2026-05-06 08:45 53.17368 -2.39694 3949 ft 204 kts 290°
2026-05-06 08:45 53.17795 -2.41965 3672 ft 204 kts 290°
2026-05-06 08:45 53.18217 -2.44199 3472 ft 202 kts 290°
2026-05-06 08:45 53.18647 -2.46465 3466 ft 204 kts 290°
2026-05-06 08:46 53.19073 -2.48720 3461 ft 205 kts 290°
2026-05-06 08:46 53.19504 -2.50998 3459 ft 205 kts 290°
2026-05-06 08:46 53.19991 -2.53213 3451 ft 203 kts 305°
2026-05-06 08:46 53.21002 -2.54738 3447 ft 196 kts 343°
2026-05-06 08:47 53.22327 -2.54898 3457 ft 192 kts 20°
2026-05-06 08:47 53.23401 -2.53669 3456 ft 191 kts 56°
2026-05-06 08:47 53.24002 -2.51675 3287 ft 192 kts 68°
2026-05-06 08:47 53.24532 -2.49637 3044 ft 190 kts 62°
2026-05-06 08:48 53.25204 -2.47750 2786 ft 189 kts 56°
2026-05-06 08:48 53.25987 -2.45995 2527 ft 188 kts 51°
2026-05-06 08:48 53.26802 -2.44321 2347 ft 180 kts 51°
2026-05-06 08:48 53.27583 -2.42724 2091 ft 176 kts 52°
2026-05-06 08:49 53.28321 -2.41196 1820 ft 165 kts 52°
2026-05-06 08:49 53.29013 -2.39760 1598 ft 151 kts 53°
2026-05-06 08:49 53.29647 -2.38438 1375 ft 141 kts 53°
2026-05-06 08:49 53.30259 -2.37161 1196 ft 139 kts 50°
2026-05-06 08:50 53.30864 -2.35905 1021 ft 139 kts 51°
2026-05-06 08:50 53.31467 -2.34657 841 ft 139 kts 51°
2026-05-06 08:50 53.32081 -2.33383 650 ft 139 kts 50°
2026-05-06 08:50 53.32685 -2.32138 451 ft 138 kts 53°
2026-05-06 08:51 53.33281 -2.30903 269 ft 134 kts 52°
2026-05-06 08:51 53.33734 -2.29954 259 ft 73 kts 51°
2026-05-06 08:51 53.34040 -2.29328 259 ft 64 kts 51°
2026-05-06 08:51 53.34287 -2.28817 259 ft 46 kts 51°
2026-05-06 08:52 53.34446 -2.28484 259 ft 28 kts 51°
2026-05-06 08:52 53.34542 -2.28316 259 ft 11 kts 36°
2026-05-06 08:52 53.34589 -2.28259 259 ft 8 kts 38°
2026-05-06 08:52 53.34631 -2.28207 259 ft 2 kts 28°
2026-05-06 08:53 53.34647 -2.28195 259 ft 4 kts 22°
2026-05-06 08:53 53.34688 -2.28171 259 ft 11 kts 18°
2026-05-06 08:53 53.34798 -2.28109 259 ft 18 kts 24°
2026-05-06 08:53 53.34897 -2.28009 259 ft 16 kts 43°
2026-05-06 08:54 53.34964 -2.27879 259 ft 12 kts 51°
2026-05-06 08:54 53.35014 -2.27773 259 ft 10 kts 54°
2026-05-06 08:54 53.35056 -2.27685 259 ft 10 kts 49°
2026-05-06 08:54 53.35111 -2.27576 259 ft 13 kts 51°
2026-05-06 08:55 53.35171 -2.27451 259 ft 14 kts 52°
2026-05-06 08:55 53.35239 -2.27306 259 ft 15 kts 52°
2026-05-06 08:55 53.35299 -2.27203 259 ft 10 kts 27°
2026-05-06 08:55 53.35336 -2.27192 259 ft 0 kts 356°
2026-05-06 08:56 53.35347 -2.27193 259 ft 5 kts 356°
2026-05-06 08:57 53.35411 -2.27246 259 ft 15 kts 324°
2026-05-06 08:57 53.35503 -2.27368 259 ft 11 kts 320°
2026-05-06 08:57 53.35538 -2.27417 259 ft 0 kts 320°
2026-05-06 08:58 53.35539 -2.27418 259 ft 0 kts 320°
2026-05-06 08:59 53.35578 -2.27471 259 ft 10 kts 320°
2026-05-06 08:59 53.35606 -2.27514 259 ft 6 kts 319°
2026-05-06 08:59 53.35645 -2.27563 259 ft 3 kts 323°
2026-05-06 08:59 53.35676 -2.27599 259 ft 8 kts 327°
2026-05-06 09:00 53.35733 -2.27652 259 ft 5 kts 333°
2026-05-06 09:00 53.35744 -2.27660 259 ft 2 kts 334°
2026-05-06 09:00 53.35778 -2.27686 259 ft 7 kts 337°
2026-05-06 09:00 53.35812 -2.27727 259 ft 5 kts 317°
2026-05-06 09:01 53.35835 -2.27765 259 ft 0 kts 313°
2026-05-06 09:01 53.35845 -2.27768 259 ft 3 kts
2026-05-06 09:01 53.35860 -2.27752 259 ft 10 kts 41°
2026-05-06 09:01 53.35930 -2.27667 259 ft 8 kts 22°
2026-05-06 09:02 53.35981 -2.27635 259 ft 2 kts
2026-05-06 09:02 53.36018 -2.27645 259 ft 12 kts 333°
2026-05-06 09:02 53.36056 -2.27708 259 ft 8 kts 301°